| time (UTC) | temp F | wind direction | speed MPH | gust MPH | rain 1hr in | rain 24hr in | rain mn in | humidity % | barometer mb |
| 20260507043016 | 68 | 0.0 | 0.0 | 0.00 | 0.00 | 0.00 | 29 | 1014.6 | |
| 20260507042016 | 68 | 0.0 | 0.0 | 0.00 | 0.00 | 0.00 | 28 | 1014.5 | |
| 20260507041016 | 68 | 0 | 2.0 | 3.0 | 0.00 | 0.00 | 0.00 | 29 | 1014.4 |
| 20260507040016 | 69 | 0 | 2.0 | 3.0 | 0.00 | 0.00 | 0.00 | 29 | 1014.4 |
| 20260507035016 | 69 | 0.0 | 0.0 | 0.00 | 0.00 | 0.00 | 28 | 1014.2 | |
| 20260507034016 | 70 | 0 | 2.0 | 3.0 | 0.00 | 0.00 | 0.00 | 28 | 1013.9 |
| 20260507033016 | 71 | 0.0 | 2.0 | 0.00 | 0.00 | 0.00 | 26 | 1013.9 | |
| 20260507032016 | 72 | 68 | 1.0 | 4.0 | 0.00 | 0.00 | 0.00 | 25 | 1013.9 |
| 20260507031016 | 72 | 315 | 2.0 | 7.0 | 0.00 | 0.00 | 0.00 | 22 | 1013.6 |
| 20260507030016 | 73 | 0.0 | 3.0 | 0.00 | 0.00 | 0.00 | 22 | 1013.5 | |
| 20260507025016 | 73 | 293 | 3.0 | 8.0 | 0.00 | 0.00 | 0.00 | 22 | 1013.5 |
| 20260507024021 | 73 | 270 | 5.0 | 11.0 | 0.00 | 0.00 | 0.00 | 21 | 1013.5 |
| 20260507023016 | 73 | 293 | 8.0 | 13.0 | 0.00 | 0.00 | 0.00 | 21 | 1013.5 |
| 20260507022016 | 73 | 293 | 6.0 | 11.0 | 0.00 | 0.00 | 0.00 | 21 | 1013.5 |
| 20260507021016 | 73 | 270 | 6.0 | 10.0 | 0.00 | 0.00 | 0.00 | 21 | 1013.4 |
| 20260507020016 | 74 | 293 | 7.0 | 12.0 | 0.00 | 0.00 | 0.00 | 21 | 1013.4 |
| 20260507015016 | 74 | 293 | 9.0 | 15.0 | 0.00 | 0.00 | 0.00 | 21 | 1013.3 |
| 20260507014016 | 74 | 293 | 6.0 | 12.0 | 0.00 | 0.00 | 0.00 | 21 | 1013.4 |
| 20260507013016 | 75 | 270 | 9.0 | 14.0 | 0.00 | 0.00 | 0.00 | 21 | 1013.3 |
| 20260507012016 | 75 | 293 | 7.0 | 13.0 | 0.00 | 0.00 | 0.00 | 21 | 1013.3 |
| 20260507011016 | 76 | 270 | 6.0 | 10.0 | 0.00 | 0.00 | 0.00 | 21 | 1013.4 |
| 20260507010016 | 76 | 270 | 7.0 | 11.0 | 0.00 | 0.00 | 0.00 | 21 | 1013.4 |
| 20260507005016 | 77 | 270 | 5.0 | 12.0 | 0.00 | 0.00 | 0.00 | 21 | 1013.4 |
| 20260507004016 | 77 | 248 | 5.0 | 12.0 | 0.00 | 0.00 | 0.00 | 21 | 1013.3 |
| 20260507003016 | 77 | 270 | 6.0 | 13.0 | 0.00 | 0.00 | 0.00 | 21 | 1013.4 |
| 20260507002016 | 78 | 270 | 5.0 | 13.0 | 0.00 | 0.00 | 0.00 | 21 | 1013.3 |
| 20260507001016 | 78 | 270 | 5.0 | 10.0 | 0.00 | 0.00 | 0.00 | 22 | 1013.3 |
| 20260507000016 | 78 | 270 | 8.0 | 14.0 | 0.00 | 0.00 | 0.00 | 22 | 1013.2 |
| 20260506235016 | 79 | 248 | 5.0 | 12.0 | 0.00 | 0.00 | 0.00 | 21 | 1013.1 |
| 20260506234016 | 79 | 248 | 5.0 | 11.0 | 0.00 | 0.00 | 0.00 | 21 | 1013.2 |
| 20260506233016 | 79 | 270 | 5.0 | 12.0 | 0.00 | 0.00 | 0.00 | 22 | 1013.3 |
| 20260506232016 | 79 | 225 | 5.0 | 12.0 | 0.00 | 0.00 | 0.00 | 22 | 1013.4 |
| 20260506231016 | 79 | 270 | 5.0 | 10.0 | 0.00 | 0.00 | 0.00 | 22 | 1013.5 |
| 20260506230016 | 78 | 225 | 5.0 | 12.0 | 0.00 | 0.00 | 0.00 | 22 | 1013.5 |
| 20260506225016 | 78 | 225 | 6.0 | 11.0 | 0.00 | 0.00 | 0.00 | 22 | 1013.6 |
| 20260506224016 | 78 | 270 | 5.0 | 11.0 | 0.00 | 0.00 | 0.00 | 22 | 1013.6 |
| 20260506223016 | 78 | 270 | 7.0 | 13.0 | 0.00 | 0.00 | 0.00 | 22 | 1013.7 |
| 20260506222016 | 78 | 270 | 6.0 | 13.0 | 0.00 | 0.00 | 0.00 | 23 | 1013.8 |
| 20260506221016 | 78 | 248 | 6.0 | 11.0 | 0.00 | 0.00 | 0.00 | 23 | 1013.8 |
| 20260506220016 | 78 | 270 | 6.0 | 12.0 | 0.00 | 0.00 | 0.00 | 24 | 1014.0 |
| 20260506215016 | 78 | 248 | 6.0 | 12.0 | 0.00 | 0.00 | 0.00 | 24 | 1014.0 |
| 20260506214016 | 78 | 248 | 5.0 | 11.0 | 0.00 | 0.00 | 0.00 | 24 | 1014.1 |
| 20260506213016 | 77 | 248 | 5.0 | 9.0 | 0.00 | 0.00 | 0.00 | 24 | 1014.2 |
| 20260506212016 | 78 | 270 | 6.0 | 11.0 | 0.00 | 0.00 | 0.00 | 25 | 1014.3 |
| 20260506211016 | 78 | 270 | 5.0 | 11.0 | 0.00 | 0.00 | 0.00 | 24 | 1014.3 |
| 20260506210016 | 77 | 225 | 3.0 | 8.0 | 0.00 | 0.00 | 0.00 | 24 | 1014.6 |
| 20260506205016 | 76 | 203 | 5.0 | 10.0 | 0.00 | 0.00 | 0.00 | 26 | 1014.6 |
| 20260506204016 | 77 | 225 | 5.0 | 13.0 | 0.00 | 0.00 | 0.00 | 25 | 1014.8 |
| 20260506203016 | 76 | 225 | 6.0 | 14.0 | 0.00 | 0.00 | 0.00 | 27 | 1014.8 |
| 20260506202016 | 76 | 225 | 5.0 | 12.0 | 0.00 | 0.00 | 0.00 | 26 | 1014.9 |
| 20260506201016 | 76 | 203 | 6.0 | 13.0 | 0.00 | 0.00 | 0.00 | 27 | 1015.0 |
| 20260506200016 | 76 | 203 | 5.0 | 12.0 | 0.00 | 0.00 | 0.00 | 27 | 1015.1 |
| 20260506195016 | 75 | 203 | 4.0 | 8.0 | 0.00 | 0.00 | 0.00 | 27 | 1015.3 |
| 20260506194016 | 75 | 203 | 5.0 | 11.0 | 0.00 | 0.00 | 0.00 | 28 | 1015.3 |
| 20260506193016 | 75 | 203 | 5.0 | 10.0 | 0.00 | 0.00 | 0.00 | 29 | 1015.6 |
| 20260506192016 | 74 | 180 | 5.0 | 12.0 | 0.00 | 0.00 | 0.00 | 30 | 1015.7 |
| 20260506191016 | 74 | 248 | 3.0 | 11.0 | 0.00 | 0.00 | 0.00 | 30 | 1015.7 |
| 20260506190016 | 73 | 248 | 4.0 | 13.0 | 0.00 | 0.00 | 0.00 | 31 | 1015.7 |
| 20260506185016 | 74 | 248 | 4.0 | 13.0 | 0.00 | 0.00 | 0.00 | 30 | 1015.6 |
| 20260506184016 | 74 | 225 | 3.0 | 7.0 | 0.00 | 0.00 | 0.00 | 31 | 1015.7 |
| 20260506183016 | 73 | 248 | 4.0 | 9.0 | 0.00 | 0.00 | 0.00 | 31 | 1016.0 |
| 20260506182016 | 73 | 180 | 3.0 | 11.0 | 0.00 | 0.00 | 0.00 | 33 | 1016.1 |
| 20260506181016 | 71 | 135 | 2.0 | 7.0 | 0.00 | 0.00 | 0.00 | 32 | 1016.2 |
| 20260506180015 | 71 | 203 | 3.0 | 9.0 | 0.00 | 0.00 | 0.00 | 34 | 1016.4 |
| 20260506175015 | 70 | 203 | 1.0 | 5.0 | 0.00 | 0.00 | 0.00 | 34 | 1016.4 |
| 20260506174016 | 70 | 203 | 3.0 | 8.0 | 0.00 | 0.00 | 0.00 | 34 | 1016.4 |
| 20260506173016 | 70 | 135 | 3.0 | 8.0 | 0.00 | 0.00 | 0.00 | 37 | 1016.3 |
| 20260506172015 | 69 | 158 | 2.0 | 7.0 | 0.00 | 0.00 | 0.00 | 36 | 1016.4 |
| 20260506171016 | 68 | 270 | 3.0 | 9.0 | 0.00 | 0.00 | 0.00 | 38 | 1016.4 |
| 20260506170016 | 69 | 225 | 1.0 | 5.0 | 0.00 | 0.00 | 0.00 | 39 | 1016.4 |
| 20260506165015 | 67 | 90 | 1.0 | 3.0 | 0.00 | 0.00 | 0.00 | 40 | 1016.4 |
| 20260506164016 | 67 | 293 | 2.0 | 5.0 | 0.00 | 0.00 | 0.00 | 43 | 1016.4 |
| 20260506163015 | 67 | 203 | 2.0 | 6.0 | 0.00 | 0.00 | 0.00 | 43 | 1016.3 |
| 20260506162016 | 67 | 248 | 3.0 | 9.0 | 0.00 | 0.00 | 0.00 | 42 | 1016.2 |
| 20260506161016 | 67 | 203 | 2.0 | 9.0 | 0.00 | 0.00 | 0.00 | 44 | 1016.1 |
| 20260506160015 | 66 | 180 | 2.0 | 5.0 | 0.00 | 0.00 | 0.00 | 42 | 1016.2 |
| 20260506155015 | 66 | 293 | 1.0 | 5.0 | 0.00 | 0.00 | 0.00 | 45 | 1016.1 |
| 20260506154016 | 65 | 0.0 | 2.0 | 0.00 | 0.00 | 0.00 | 44 | 1016.1 | |
| 20260506153015 | 64 | 0.0 | 0.0 | 0.00 | 0.00 | 0.00 | 47 | 1016.1 | |
| 20260506152015 | 63 | 203 | 1.0 | 3.0 | 0.00 | 0.00 | 0.00 | 48 | 1016.1 |
| 20260506151016 | 63 | 158 | 1.0 | 4.0 | 0.00 | 0.00 | 0.00 | 50 | 1016.1 |
| 20260506150015 | 62 | 180 | 2.0 | 6.0 | 0.00 | 0.00 | 0.00 | 52 | 1016.1 |
| 20260506145015 | 61 | 135 | 1.0 | 3.0 | 0.00 | 0.00 | 0.00 | 53 | 1016.0 |
| 20260506144016 | 61 | 90 | 2.0 | 4.0 | 0.00 | 0.00 | 0.00 | 53 | 1016.0 |
| 20260506143016 | 60 | 68 | 1.0 | 3.0 | 0.00 | 0.00 | 0.00 | 54 | 1016.1 |
| 20260506142016 | 59 | 0.0 | 3.0 | 0.00 | 0.00 | 0.00 | 57 | 1016.0 | |
| 20260506141016 | 59 | 113 | 1.0 | 3.0 | 0.00 | 0.00 | 0.00 | 58 | 1016.0 |
| 20260506140015 | 58 | 113 | 1.0 | 4.0 | 0.00 | 0.00 | 0.00 | 60 | 1015.9 |
| 20260506135015 | 57 | 113 | 1.0 | 3.0 | 0.00 | 0.00 | 0.00 | 62 | 1015.9 |
| 20260506134016 | 56 | 90 | 1.0 | 2.0 | 0.00 | 0.00 | 0.00 | 65 | 1015.9 |
| 20260506133015 | 54 | 0.0 | 0.0 | 0.00 | 0.00 | 0.00 | 69 | 1015.8 | |
| 20260506132015 | 53 | 0.0 | 2.0 | 0.00 | 0.00 | 0.00 | 72 | 1015.6 | |
| 20260506131015 | 52 | 0.0 | 1.0 | 0.00 | 0.00 | 0.00 | 74 | 1015.6 | |
| 20260506130016 | 51 | 0 | 1.0 | 2.0 | 0.00 | 0.00 | 0.00 | 74 | 1015.5 |
| 20260506125015 | 51 | 23 | 1.0 | 2.0 | 0.00 | 0.00 | 0.00 | 74 | 1015.5 |
| 20260506124015 | 52 | 0 | 2.0 | 3.0 | 0.00 | 0.00 | 0.00 | 74 | 1015.3 |
| 20260506123015 | 52 | 0 | 2.0 | 3.0 | 0.00 | 0.00 | 0.00 | 73 | 1015.2 |
| 20260506122015 | 52 | 23 | 1.0 | 3.0 | 0.00 | 0.00 | 0.00 | 71 | 1015.1 |
| 20260506121015 | 53 | 0 | 1.0 | 2.0 | 0.00 | 0.00 | 0.00 | 70 | 1015.1 |
| 20260506120015 | 53 | 0.0 | 0.0 | 0.00 | 0.02 | 0.00 | 69 | 1015.0 | |
| 20260506115015 | 54 | 0.0 | 0.0 | 0.00 | 0.02 | 0.00 | 67 | 1015.1 | |
| 20260506114015 | 54 | 0 | 1.0 | 2.0 | 0.00 | 0.02 | 0.00 | 67 | 1015.0 |
| 20260506113015 | 54 | 0.0 | 1.0 | 0.00 | 0.02 | 0.00 | 65 | 1014.9 | |
| 20260506112015 | 54 | 45 | 2.0 | 4.0 | 0.00 | 0.02 | 0.00 | 65 | 1014.9 |
| 20260506111015 | 54 | 45 | 2.0 | 3.0 | 0.00 | 0.02 | 0.00 | 65 | 1014.8 |
| 20260506110015 | 54 | 68 | 2.0 | 4.0 | 0.00 | 0.04 | 0.00 | 64 | 1014.7 |
| 20260506105015 | 54 | 45 | 2.0 | 4.0 | 0.00 | 0.04 | 0.00 | 63 | 1014.7 |
| 20260506104015 | 55 | 45 | 2.0 | 3.0 | 0.00 | 0.04 | 0.00 | 62 | 1014.6 |
| 20260506103015 | 55 | 23 | 2.0 | 3.0 | 0.00 | 0.04 | 0.00 | 62 | 1014.5 |
| 20260506102015 | 55 | 23 | 2.0 | 3.0 | 0.00 | 0.04 | 0.00 | 60 | 1014.3 |
| 20260506101015 | 55 | 23 | 2.0 | 3.0 | 0.00 | 0.04 | 0.00 | 61 | 1014.2 |
| 20260506100015 | 55 | 23 | 2.0 | 3.0 | 0.00 | 0.07 | 0.00 | 59 | 1014.2 |
| 20260506095015 | 56 | 45 | 2.0 | 3.0 | 0.00 | 0.07 | 0.00 | 59 | 1014.2 |
| 20260506094015 | 56 | 90 | 2.0 | 3.0 | 0.00 | 0.07 | 0.00 | 57 | 1014.2 |
| 20260506093015 | 57 | 90 | 1.0 | 3.0 | 0.00 | 0.07 | 0.00 | 55 | 1014.2 |
| 20260506092015 | 57 | 90 | 2.0 | 4.0 | 0.00 | 0.07 | 0.00 | 54 | 1014.1 |
| 20260506091015 | 58 | 45 | 1.0 | 3.0 | 0.00 | 0.07 | 0.00 | 51 | 1014.2 |
| 20260506090015 | 59 | 0.0 | 2.0 | 0.00 | 0.11 | 0.00 | 48 | 1014.0 | |
| 20260506085015 | 60 | 23 | 1.0 | 3.0 | 0.00 | 0.11 | 0.00 | 47 | 1014.0 |
| 20260506084015 | 60 | 315 | 2.0 | 4.0 | 0.00 | 0.11 | 0.00 | 46 | 1014.0 |
| 20260506083015 | 61 | 68 | 1.0 | 3.0 | 0.00 | 0.11 | 0.00 | 44 | 1014.1 |
| 20260506082015 | 61 | 293 | 3.0 | 9.0 | 0.00 | 0.11 | 0.00 | 42 | 1014.2 |
| 20260506081015 | 61 | 293 | 6.0 | 11.0 | 0.00 | 0.11 | 0.00 | 41 | 1014.2 |
| 20260506073015 | 61 | 270 | 3.0 | 9.0 | 0.00 | 0.17 | 0.00 | 42 | 1014.1 |
| 20260506072015 | 61 | 293 | 3.0 | 8.0 | 0.00 | 0.17 | 0.00 | 42 | 1014.2 |
| 20260506071015 | 61 | 270 | 5.0 | 9.0 | 0.00 | 0.17 | 0.00 | 41 | 1014.3 |
| 20260506062016 | 62 | 293 | 6.0 | 10.0 | 0.00 | 0.25 | 0.17 | 42 | 1014.0 |
| 20260506061016 | 62 | 293 | 7.0 | 11.0 | 0.00 | 0.25 | 0.17 | 43 | 1014.1 |
| 20260506051015 | 63 | 270 | 3.0 | 7.0 | 0.00 | 0.37 | 0.17 | 44 | 1013.7 |
| 20260506045016 | 63 | 270 | 5.0 | 10.0 | 0.00 | 0.40 | 0.17 | 44 | 1013.4 |
| 20260506044015 | 63 | 293 | 6.0 | 10.0 | 0.00 | 0.40 | 0.17 | 45 | 1013.3 |